Abisinia, Peru

2:59 AM -05 on January 16, 2018 (GMT -0500)
Abisinia

Weather History for 84691 - July, 2013

Change the Weather History Date:

Monday, July 29, 2013

  Actual Average Record
Temperature  
Mean Temperature 60 °F -  
Max Temperature 64 °F 69 °F - ()
Min Temperature 56 °F 55 °F - ()
Degree Days  
Heating Degree Days 5    
Growing Degree Days 10 (Base 50)    
Moisture  
Dew Point 58 °F    
Average Humidity 88    
Maximum Humidity 88    
Minimum Humidity 82    
Precipitation  
Precipitation 0.00 in 0.00 in - ()
Sea Level Pressure  
Sea Level Pressure 30.01 in    
Wind  
Wind Speed 6 mph ()    
Max Wind Speed 16 mph    
Max Gust Speed -    
Visibility 3.5 miles    
Events      
T = Trace of Precipitation, MM = Missing Value Source: Averaged Metar Reports

Daily Weather History Graph

Daily Weather History Graph

Search for Another Location

Airport or City:

Trip Planner

Search our weather history database for the weather conditions in past years. The results will help you decide how hot, cold, wet, or windy it might be!

Date:

Astronomy

Jul. 29, 2013 Rise Set
Actual Time 6:26 AM -05 5:56 PM -05
Civil Twilight 6:04 AM -05 6:18 PM -05
Nautical Twilight 5:38 AM -05 6:44 PM -05
Astronomical Twilight 5:12 AM -05 7:10 PM -05
Moon No Moon Rise 11:35 AM -05 (7/29)
Length of Visible Light 12h 14m
Length of Day
11h 29m
Waning Gibbous, 50% of the Moon is Illuminated
Jul 29
Waning Gibbous
Jul 29
Last Quarter
Aug 6
New
Aug 14
First Quarter
Aug 20
Full

Hourly Weather History & Observations

Time (-05) Temp. Dew Point Humidity Pressure Visibility Wind Dir Wind Speed Gust Speed Precip Events Conditions
12:00 AM 60.8 °F 57.2 °F 88% 30.01 in 3.7 mi SSW 9.2 mph - N/A   Overcast
1:00 AM 60 °F 57 °F 85% 29.99 in 3 mi SSW 6.9 mph - -   Mist
1:00 AM 60.8 °F 57.2 °F 88% 30.01 in 3.1 mi SSW 6.9 mph - N/A   Overcast
2:00 AM 60.8 °F 57.2 °F 88% 29.98 in 3.1 mi WSW 4.6 mph - N/A   Overcast
3:00 AM 60.8 °F 57.2 °F 88% 29.95 in 3.1 mi SW 5.8 mph - N/A   Overcast
4:00 AM 60 °F 57 °F 86% 29.95 in 3 mi 2.3 mph - -   Mist
4:00 AM 60.8 °F 57.2 °F 88% 29.95 in 3.1 mi Variable 2.3 mph - N/A   Overcast
5:00 AM 60.8 °F 57.2 °F 88% 29.95 in 3.1 mi Calm Calm - N/A   Overcast
6:00 AM 60.8 °F 57.2 °F 88% 29.98 in 2.5 mi WSW 4.6 mph - N/A   Overcast
7:00 AM 60 °F 57 °F 87% 29.98 in 2 mi SW 5.8 mph - -   Mist
7:00 AM 60.8 °F 57.2 °F 88% 30.01 in 2.5 mi SW 5.8 mph - N/A   Overcast
8:00 AM 60.8 °F 57.2 °F 88% 30.01 in 3.1 mi Calm Calm - N/A   Overcast
9:00 AM 60.8 °F 57.2 °F 88% 30.04 in 3.1 mi Calm Calm - N/A   Overcast
10:00 AM 62 °F 59 °F 87% 30.04 in 4 mi West 3.5 mph - -   Mist
10:00 AM 62.6 °F 59.0 °F 88% 30.04 in 3.7 mi West 3.5 mph - N/A   Overcast
11:00 AM 62.6 °F 59.0 °F 88% 30.04 in 3.7 mi WSW 4.6 mph - N/A   Overcast
12:00 PM 62.6 °F 57.2 °F 82% 30.04 in 3.7 mi SW 3.5 mph - N/A   Overcast
1:00 PM 62.6 °F 59.0 °F 88% 30.01 in 3.7 mi NW 3.5 mph - N/A   Overcast
2:00 PM 62.6 °F 59.0 °F 88% 29.98 in 3.1 mi NW 4.6 mph - N/A   Overcast
3:00 PM 62.6 °F 59.0 °F 88% 29.98 in 3.7 mi West 4.6 mph - N/A   Overcast
4:00 PM 62.6 °F 59.0 °F 88% 29.98 in 3.7 mi SW 15.0 mph - N/A   Overcast
5:00 PM 60.8 °F 57.2 °F 88% 29.98 in 3.7 mi SW 15.0 mph - N/A   Overcast
6:00 PM 60.8 °F 57.2 °F 88% 30.01 in 3.7 mi South 16.1 mph - N/A   Overcast
6:10 PM 60.8 °F 57.2 °F 88% 30.01 in 3.7 mi South 15.0 mph - N/A   Overcast
7:00 PM 60 °F 57 °F 87% 30.01 in 4 mi South 13.8 mph - -   Mist
7:00 PM 60.8 °F 57.2 °F 88% 30.04 in 3.7 mi South 13.8 mph - N/A   Overcast
8:00 PM 60.8 °F 57.2 °F 88% 30.04 in 4.3 mi South 11.5 mph - N/A   Overcast
9:00 PM 60.8 °F 57.2 °F 88% 30.06 in 4.3 mi SSW 10.4 mph - N/A   Overcast
10:00 PM 60 °F 57 °F 87% 30.06 in 4 mi South 5.8 mph - -   Mist
10:00 PM 60.8 °F 57.2 °F 88% 30.06 in 4.3 mi South 5.8 mph - N/A   Overcast
11:00 PM 60.8 °F 57.2 °F 88% 30.06 in 4.3 mi SW 9.2 mph - N/A   Overcast